Regional Weather Roundup
Issued by NWS Green Bay, WI

Home | Current Version | Previous Version | Text Only | Print | Product List | Glossary On
Versions: 1 2 3 4 5 6 7 8 9 10 11 12 13 14 15 16 17 18 19 20 21 22 23 24 25 26 27 28 29 30 31 32 33 34 35 36 37 38 39 40 41 42 43 44 45 46 47 48 49 50
000
ASUS43 KGRB 151559
RWRGRB

NORTH-CENTRAL AND NORTHEAST WISCONSIN REGIONAL WEATHER ROUNDUP
NATIONAL WEATHER SERVICE GREEN BAY WI
1100 AM CDT MON SEP 15 2014

WIZ005-009-010>012-018-019-151700-
NORTH CENTRAL WISCONSIN

CITY           SKY/WX    TMP DP  RH WIND       PRES   REMARKS
IRONWOOD       CLOUDY    50  46  87 NW10      30.13S
MANITOWISH WTR NOT AVBL
ARBOR VITAE    NOT AVBL
EAGLE RIVER    NOT AVBL
LAND O LAKES   NOT AVBL
RHINELANDER    MOSUNNY   55  43  63 NW12      30.14S
PHILLIPS       NOT AVBL
ANTIGO         NOT AVBL
TOMAHAWK       NOT AVBL
MERRILL        NOT AVBL
$$

WIZ013-073-151700-
NORTHEAST WISCONSIN

CITY           SKY/WX    TMP DP  RH WIND       PRES   REMARKS
IRON MOUNTAIN  MOSUNNY   59  42  53 NW10      30.09F
MARINETTE      MOSUNNY   57  45  62 CALM      30.11F
$$

WIZ017-030-035>037-045-151700-
CENTRAL WISCONSIN

CITY           SKY/WX    TMP DP  RH WIND       PRES   REMARKS
MEDFORD        NOT AVBL
WAUSAU         PTSUNNY   55  43  63 NW7       30.13S
MOSINEE        MOSUNNY   54  46  76 NW5       30.15S
MARSHFIELD     CLOUDY    54  46  74 NW7       30.14F
WISC RAPIDS    LGT RAIN  52  50  93 CALM      30.16S
STEVENS POINT  NOT AVBL
WAUPACA        NOT AVBL
SHAWANO        NOT AVBL
CLINTONVILLE   NOT AVBL
$$

WIZ038-039-048-051-151700-
FOX VALLEY

CITY           SKY/WX    TMP DP  RH WIND       PRES   REMARKS
NWS GREEN BAY  CLOUDY    55  50  83 W5        30.14S
APPLETON       NOT AVBL
OSHKOSH        CLOUDY    55  51  86 NW7       30.14S
FOND DU LAC    LGT RAIN  54  49  83 NW6       30.14S
$$

WIZ022-050-052-151700-
EAST CENTRAL WISCONSIN

CITY           SKY/WX    TMP DP  RH WIND       PRES   REMARKS
STURGEON BAY   CLOUDY    54  46  76 W6        30.13S
MANITOWOC      NOT AVBL
SHEBOYGAN      LGT RAIN  53  50  89 CALM      30.13F FOG
$$

LMZ563-521-522-541>543-151700-
LAKESHORE

STATION/POSITION TIME  TEMP    WIND        PRES    VSBY  WAVE
                       AIR SEA DIR/SP/G                  HT/PER
                 (UTC) (F)     (DEG/KT/KT) (MB)    (MI)  (FT/S)
SHEBOYGAN LKSHOR 1500   52 52  220/  3/  3 1020.9F
KEWAUNEE LKSHORE 1500   53     260/  2/  3 1019.3R
TWO RIVERS CG    1500   50 61              1019.9      6   1
NORTHPORT PIER   1500   54     330/  5/  6 1020.0S
N MID LAKE BUOY  1500   55 58  340/  4/  6 1019.9F         2/ 5
S GREEN BAY BUOY 1500   54     VRB  4/  6  1021.0R
STURGEON BAY CG  1500   55 54  310/  4     1020.9      6   1
CHAMBERS ISLAND  1500   60     330/  3/  4 1020.3S
MENOMINEE LKSHOR 1500   55      70/  4/  5 1020.3F
$$


USA.gov is the U.S. government's official web portal to all federal, state and local government web resources and services.